Wind_Speed
46 46 46 46 46 46 46 47 47 47 47 47 47 47 47 46 46 46 46 45 44 43 41 41 40 40 39 39 38 38 38 38 37 36 35 34 33 32 31 31 30 29 29
48 48 48 48 48 48 48 48 48 47 47 47 46 46 46 45 45 45 44 43 42 40 40 39 39 38 37 37 36 36 36 36 35 34 33 33 32 31 31 30 30 29 29
48 48 48 48 49 49 48 48 48 48 47 47 46 45 44 44 43 42 41 41 39 39 38 37 37 36 35 35 35 34 34 34 34 33 32 32 31 31 31 31 30 30 29
47 47 47 48 48 47 47 47 47 47 46 46 45 44 43 42 41 40 39 38 37 37 36 35 34 34 33 33 33 33 33 33 32 32 32 31 31 31 32 31 31 31 31
44 45 45 46 46 46 46 45 45 44 44 43 43 42 41 40 39 38 37 36 35 34 33 33 32 32 32 32 32 32 32 31 31 31 31 32 32 32 32 32 32 32 32
42 43 43 43 43 43 43 43 43 42 42 41 41 40 39 38 37 36 35 34 33 32 31 31 30 30 30 31 31 31 31 31 31 31 32 32 32 33 33 33 33 33 33
41 41 42 42 41 41 41 40 40 40 39 39 38 37 36 36 35 33 32 31 30 29 29 29 29 29 29 29 30 30 30 31 32 32 33 33 34 34 35 35 35 36 35
38 39 39 39 39 38 38 38 38 37 37 36 35 35 34 32 31 30 29 28 28 28 28 28 28 28 29 29 30 30 31 32 33 34 34 35 35 36 36 37 37 37 37
37 37 36 36 36 36 35 35 35 35 34 33 33 32 31 30 29 28 27 27 27 27 27 27 27 28 29 30 31 32 33 33 34 35 36 36 37 37 38 38 38 39 39
34 34 34 34 34 33 33 32 32 31 31 30 30 30 29 29 28 27 27 27 27 27 27 27 28 29 30 31 32 33 34 35 36 36 37 38 39 39 39 40 40 40 41
32 31 31 31 31 30 30 30 29 29 29 29 29 29 28 28 27 27 27 27 27 28 28 29 29 30 31 32 33 34 35 36 37 37 38 39 40 40 41 41 41 42 43
28 28 28 28 28 28 28 28 28 28 28 28 28 28 28 28 28 28 28 28 28 29 29 30 31 32 33 34 35 36 36 37 38 39 40 40 41 41 41 42 43 44 45
26 26 26 27 27 27 27 27 27 27 27 28 28 28 28 28 28 28 29 29 30 31 31 32 33 33 34 35 36 36 37 38 39 40 40 41 41 42 43 45 46 47 47
24 25 25 25 26 26 26 26 27 27 27 28 28 29 29 29 29 30 30 31 32 33 33 34 35 35 36 36 37 38 39 40 40 41 41 42 43 44 45 46 47 48 49
25 25 25 25 25 25 25 26 27 27 28 28 29 29 30 30 30 31 32 33 34 34 35 35 36 36 37 37 38 39 40 40 41 41 42 43 44 46 47 47 48 48 49
25 25 25 25 25 25 26 26 26 27 27 28 29 29 30 31 32 32 33 34 35 35 36 36 37 37 38 38 39 39 40 41 41 42 43 44 45 46 47 47 47 48 48
25 25 25 26 26 26 26 26 27 28 29 29 30 31 32 32 33 34 35 36 36 36 36 37 37 38 38 39 39 40 40 41 42 43 44 45 46 46 47 47 47 47 47
27 27 27 27 27 27 28 28 29 29 30 31 32 32 33 34 34 35 35 36 37 37 37 37 38 38 38 38 39 40 41 42 42 43 44 45 46 46 46 47 47 47 47
28 27 28 28 28 29 30 30 31 31 32 32 33 34 34 35 35 36 37 37 37 38 38 38 38 38 38 39 40 41 41 42 42 43 44 45 45 46 46 47 47 47 48
29 29 30 30 30 31 31 32 32 33 34 34 35 36 36 36 37 38 38 38 38 39 39 38 39 39 39 40 41 41 41 42 42 43 44 45 45 46 47 47 47 47 48
30 30 30 31 31 31 32 32 33 34 35 35 36 37 38 38 38 39 39 39 39 39 39 39 40 40 40 40 41 41 41 41 42 43 44 45 46 47 47 48 48 48 49
32 31 31 31 32 32 32 33 33 34 35 36 36 37 38 38 38 39 39 39 39 39 39 39 40 40 40 40 40 40 41 41 42 44 45 46 47 48 48 48 49 50 49
32 32 32 32 32 32 33 33 33 34 34 35 36 37 37 37 38 38 38 38 38 39 39 39 39 39 39 38 39 39 40 41 43 45 46 47 48 48 49 49 50 50 49
32 32 32 31 31 31 31 32 32 33 33 34 35 36 37 37 37 37 38 38 38 38 38 37 37 37 37 38 38 39 40 42 44 46 47 47 48 49 49 50 50 49 49
31 30 30 30 30 30 30 30 31 31 32 33 34 34 35 35 36 36 37 37 37 37 37 36 36 37 37 38 38 39 41 43 45 46 47 47 48 49 50 50 49 49 49
29 29 29 28 28 28 28 29 29 30 30 31 31 31 32 32 33 33 34 34 34 35 35 36 36 36 36 37 39 40 43 45 46 47 47 47 48 49 49 49 48 48 48
Wind_Direction
252 254 256 258 259 261 263 265 267 269 270 272 273 275 277 279 281 283 284 285 286 287 287 288 289 291 293 294 296 297 297 298 298 298 299 299 300 301 303 305 307 309 311
255 256 258 260 261 263 264 266 267 269 270 272 273 275 277 279 280 282 283 284 284 285 286 288 289 291 293 295 296 297 297 298 298 298 299 299 300 301 302 304 306 307 308
256 257 259 261 262 264 265 266 268 268 270 271 273 275 276 278 280 280 281 282 282 284 286 287 289 291 293 295 296 297 298 298 298 298 298 299 300 301 302 303 304 305 305
257 259 260 262 263 264 265 266 268 269 270 271 272 273 275 277 277 278 278 279 281 283 285 287 289 292 294 295 296 297 298 298 298 298 298 300 300 301 302 302 303 303 303
259 260 261 262 263 264 265 266 267 268 269 269 270 272 273 273 274 275 276 278 280 282 284 286 289 292 294 295 296 297 297 297 297 298 299 300 300 301 301 301 302 302 301
261 261 262 262 263 264 265 265 266 267 267 268 269 270 270 271 272 273 274 276 278 281 284 286 289 292 294 295 295 296 297 297 298 298 299 300 301 301 301 301 301 300 300
262 263 263 263 264 264 264 265 265 266 266 266 267 267 268 269 269 270 272 275 277 280 283 287 290 292 294 295 296 296 297 298 298 299 299 300 301 301 301 301 301 300 300
263 264 264 264 263 263 263 263 263 264 264 264 264 265 265 265 266 267 270 273 277 281 284 287 290 293 294 295 296 296 297 298 298 299 299 300 300 301 301 301 301 300 299
262 263 263 263 263 262 262 262 261 261 261 261 261 261 262 262 264 266 270 274 278 281 285 289 292 293 295 296 296 297 297 298 298 298 299 299 300 300 301 301 300 300 299
261 262 263 262 261 261 260 260 259 259 258 259 259 259 260 261 263 266 270 275 278 282 286 289 292 293 295 296 296 297 297 298 298 298 298 299 300 300 300 300 300 300 299
261 262 262 261 260 259 258 257 257 256 256 257 258 258 259 261 263 267 272 276 280 283 286 289 291 293 295 296 297 297 298 298 298 298 299 299 300 300 300 300 300 300 300
260 260 260 258 257 256 256 256 256 255 255 257 257 257 259 262 265 269 273 277 281 284 287 290 292 293 295 296 296 297 298 298 298 299 299 299 300 301 301 301 301 301 300
259 259 259 258 257 256 256 256 256 255 256 257 258 259 261 264 267 271 275 279 283 286 288 290 292 293 295 295 296 297 298 298 299 299 300 300 300 301 302 302 302 301 301
260 260 259 258 257 256 257 257 257 257 257 258 260 262 264 267 270 273 276 280 284 286 289 290 292 293 294 295 296 297 298 299 299 300 300 300 301 302 303 303 303 302 301
259 259 259 258 258 258 259 259 259 259 260 261 263 265 267 269 272 275 279 282 284 286 288 290 291 293 294 295 296 297 299 299 300 300 301 301 302 303 303 304 304 303 302
258 259 259 259 260 260 260 260 261 262 263 265 267 269 271 273 274 277 280 283 285 286 288 289 291 293 294 296 297 298 299 300 301 301 302 302 303 304 305 305 305 304 304
258 259 261 261 260 261 262 263 263 264 265 267 269 271 273 275 276 278 280 283 284 286 287 289 291 293 294 296 297 298 300 301 302 303 303 304 305 305 306 306 306 305 305
259 259 260 261 262 263 264 265 266 266 267 269 270 272 274 276 277 279 280 283 284 286 287 289 291 293 295 296 298 299 301 302 303 304 305 306 306 306 307 307 307 306 306
259 260 261 262 263 264 265 266 267 268 269 270 272 273 275 276 277 279 280 282 284 285 287 289 291 293 295 297 298 300 301 302 303 305 306 306 307 307 307 307 307 307 307
259 261 262 263 265 266 267 267 268 269 270 271 272 274 275 276 277 278 280 281 283 285 287 289 291 293 295 296 298 300 301 303 304 306 307 307 308 308 308 308 308 307 307
259 261 262 264 266 267 268 269 269 270 271 272 274 275 275 276 277 278 279 281 283 285 287 289 291 293 295 296 298 300 301 303 304 306 307 308 308 308 308 308 308 308 308
258 260 262 264 266 268 269 270 271 272 273 273 274 275 276 276 277 278 280 281 283 284 287 290 292 294 295 297 298 300 301 303 305 307 308 308 308 308 308 308 308 308 308
258 260 263 264 266 268 269 271 273 275 275 276 275 276 277 278 278 279 280 281 283 286 288 291 293 294 295 297 299 300 301 303 305 307 308 308 308 309 309 309 309 309 308
259 260 263 265 267 269 271 272 274 276 278 278 278 277 278 278 279 279 281 282 284 287 289 291 293 294 296 298 299 300 302 304 306 308 308 308 308 309 309 309 309 309 308
258 260 262 265 267 269 272 274 276 278 279 280 281 280 280 280 280 280 281 283 285 287 289 291 293 294 296 298 300 301 303 305 306 308 308 308 309 309 309 309 309 309 308
257 260 262 265 267 270 272 275 277 279 280 282 283 283 283 283 282 283 283 284 285 287 289 291 293 294 296 299 300 302 304 306 307 308 309 309 309 310 310 309 309 308 307
Height
5743 5745 5746 5748 5749 5750 5750 5751 5751 5751 5751 5751 5751 5750 5749 5747 5746 5744 5742 5740 5737 5734 5731 5728 5725 5722 5718 5715 5711 5707 5704 5700 5697 5693 5689 5685 5682 5678 5674 5670 5666 5662 5658
5732 5734 5736 5737 5738 5739 5740 5740 5740 5740 5740 5740 5739 5739 5738 5737 5735 5733 5731 5729 5727 5724 5722 5719 5716 5713 5709 5706 5702 5699 5695 5691 5688 5685 5681 5678 5674 5671 5667 5664 5660 5656 5652
5722 5723 5724 5726 5727 5727 5728 5729 5729 5729 5729 5729 5728 5728 5727 5726 5724 5722 5721 5719 5717 5715 5712 5710 5707 5704 5700 5697 5694 5690 5687 5683 5680 5677 5674 5670 5667 5664 5660 5657 5653 5649 5646
5711 5712 5713 5714 5715 5716 5717 5717 5718 5718 5718 5718 5717 5717 5716 5715 5714 5712 5711 5709 5707 5705 5703 5700 5698 5695 5692 5689 5685 5682 5679 5676 5672 5669 5666 5663 5660 5656 5653 5649 5646 5642 5639
5700 5701 5702 5703 5704 5705 5705 5706 5706 5706 5706 5706 5706 5706 5705 5704 5703 5702 5701 5699 5698 5696 5694 5691 5689 5686 5683 5680 5677 5674 5671 5668 5665 5662 5659 5656 5652 5649 5646 5642 5638 5635 5631
5689 5690 5691 5692 5693 5694 5694 5695 5695 5695 5695 5695 5695 5695 5694 5694 5693 5693 5692 5690 5689 5687 5685 5683 5680 5678 5675 5672 5669 5666 5663 5660 5657 5654 5651 5648 5645 5641 5638 5634 5630 5627 5624
5679 5680 5680 5681 5682 5683 5683 5684 5684 5684 5684 5685 5685 5685 5684 5684 5684 5683 5682 5681 5680 5678 5677 5675 5672 5670 5667 5664 5661 5659 5656 5652 5650 5647 5643 5640 5636 5633 5629 5626 5622 5618 5615
5669 5669 5670 5671 5671 5672 5673 5673 5674 5674 5674 5675 5675 5675 5675 5675 5675 5674 5674 5673 5672 5670 5669 5666 5664 5662 5659 5656 5654 5651 5648 5645 5642 5638 5635 5631 5627 5624 5620 5616 5612 5608 5605
5659 5660 5660 5661 5661 5662 5663 5663 5664 5664 5665 5665 5666 5666 5666 5667 5667 5666 5666 5665 5664 5662 5660 5658 5656 5654 5651 5648 5646 5643 5640 5636 5633 5629 5626 5622 5618 5614 5610 5606 5602 5598 5594
5650 5651 5651 5652 5652 5653 5653 5654 5655 5656 5656 5657 5658 5658 5658 5659 5659 5658 5658 5657 5655 5654 5652 5650 5648 5645 5643 5640 5637 5634 5631 5627 5624 5620 5616 5612 5608 5604 5599 5595 5591 5587 5583
5641 5642 5643 5643 5644 5644 5645 5646 5646 5647 5648 5649 5650 5650 5651 5651 5651 5650 5649 5648 5647 5645 5644 5641 5639 5637 5634 5631 5628 5625 5621 5618 5614 5610 5606 5602 5598 5593 5589 5584 5580 5575 5571
5633 5634 5635 5635 5636 5637 5637 5638 5639 5640 5640 5641 5642 5642 5643 5643 5643 5642 5641 5640 5639 5637 5635 5633 5630 5628 5625 5622 5619 5615 5611 5608 5604 5600 5595 5591 5587 5582 5577 5573 5568 5563 5558
5626 5627 5627 5628 5628 5629 5630 5630 5631 5632 5633 5634 5634 5635 5635 5635 5634 5633 5633 5631 5630 5628 5626 5624 5621 5618 5615 5612 5609 5605 5601 5597 5593 5589 5585 5580 5575 5571 5566 5561 5555 5550 5545
5619 5620 5620 5621 5621 5622 5622 5623 5624 5624 5625 5626 5626 5626 5626 5626 5626 5625 5624 5622 5620 5619 5616 5614 5611 5608 5605 5602 5599 5595 5591 5587 5582 5578 5573 5569 5564 5559 5553 5548 5542 5537 5531
5613 5613 5614 5614 5614 5615 5615 5616 5617 5617 5617 5618 5618 5618 5618 5617 5617 5616 5614 5613 5611 5609 5606 5604 5601 5598 5595 5592 5588 5584 5580 5576 5571 5567 5562 5557 5552 5546 5541 5535 5529 5523 5517
5606 5606 5607 5607 5608 5608 5608 5609 5609 5609 5609 5609 5609 5609 5609 5608 5607 5606 5605 5603 5601 5599 5596 5593 5591 5588 5584 5581 5577 5573 5569 5565 5560 5555 5550 5545 5539 5534 5528 5522 5516 5510 5503
5598 5599 5600 5600 5600 5601 5601 5601 5601 5601 5601 5601 5601 5600 5600 5599 5598 5596 5595 5593 5590 5588 5586 5583 5580 5577 5574 5570 5566 5562 5558 5553 5548 5543 5538 5533 5527 5521 5515 5509 5503 5497 5491
5591 5591 5592 5592 5592 5593 5593 5593 5593 5593 5593 5592 5592 5591 5590 5589 5588 5586 5584 5582 5580 5578 5575 5572 5569 5566 5563 5559 5555 5551 5547 5542 5537 5532 5526 5521 5515 5509 5503 5497 5491 5485 5478
5582 5583 5583 5583 5584 5584 5584 5584 5584 5584 5584 5583 5582 5581 5580 5579 5577 5576 5574 5572 5569 5567 5564 5562 5558 5555 5552 5548 5544 5540 5535 5530 5525 5520 5515 5509 5503 5497 5491 5485 5478 5472 5466
5573 5574 5574 5574 5575 5575 5575 5575 5574 5574 5574 5573 5572 5571 5570 5568 5567 5565 5563 5561 5558 5556 5553 5551 5548 5544 5541 5537 5533 5528 5524 5519 5514 5509 5503 5497 5491 5485 5479 5472 5466 5459 5453
5563 5564 5564 5565 5565 5565 5565 5565 5564 5564 5563 5563 5562 5560 5559 5557 5556 5554 5552 5550 5547 5545 5542 5540 5536 5533 5530 5525 5521 5517 5512 5507 5502 5497 5491 5485 5479 5473 5466 5460 5453 5447 5440
5553 5554 5554 5555 5555 5555 5555 5554 5554 5553 5553 5552 5551 5549 5547 5546 5544 5543 5541 5538 5536 5534 5531 5528 5525 5522 5518 5514 5510 5506 5501 5496 5491 5486 5479 5473 5467 5460 5454 5447 5440 5433 5427
5543 5544 5544 5545 5545 5545 5544 5544 5543 5543 5542 5540 5539 5538 5536 5535 5533 5531 5530 5527 5525 5523 5520 5517 5514 5511 5507 5503 5499 5494 5490 5485 5480 5474 5468 5461 5454 5448 5441 5434 5427 5420 5413
5532 5533 5534 5534 5534 5534 5534 5534 5533 5532 5531 5529 5528 5527 5525 5524 5522 5520 5519 5516 5514 5512 5509 5506 5503 5500 5496 5492 5488 5483 5479 5474 5468 5462 5456 5449 5442 5435 5428 5421 5414 5407 5400
5522 5523 5524 5524 5524 5524 5524 5524 5523 5522 5520 5519 5517 5516 5514 5513 5511 5509 5508 5506 5503 5501 5498 5495 5492 5489 5485 5481 5477 5472 5468 5462 5457 5450 5444 5437 5430 5423 5416 5409 5401 5394 5387
5512 5513 5514 5514 5515 5515 5514 5514 5513 5512 5511 5509 5507 5506 5504 5502 5501 5499 5497 5495 5493 5490 5488 5485 5482 5478 5474 5470 5466 5461 5456 5451 5445 5438 5432 5425 5418 5411 5403 5396 5389 5382 5375